User: anonymous   Login
Location: Allison's Woods
(35.8809°N, 80.8140°W)
Time: 11:13:05
(UTC-04:00)
Language:

Iridium 39 - Orbit

View from above orbital plane
View from above orbital plane
View from above satellite
View from above satellite

Ground track
Ground track

The orbit data is extracted from the following two-line orbital elements,

1 25042U 97069D   15182.47980455  .00000142  00000-0  43673-4 0  9997
2 25042 086.3977 321.7489 0002350 094.1623 265.9841 14.34216112923581
Epoch (UTC): 01 July 2015 11:30:55
Eccentricity: 0.0002350
inclination: 86.3977°
perigee height: 776 km
apogee height: 779 km
right ascension of ascending node: 321.7489°
argument of perigee: 94.1623°
revolutions per day: 14.34216112
mean anomaly at epoch: 265.9841°
orbit number at epoch: 92358

The dashed part of the orbit path shows where the satellite is in the earth's shadow,  

DLR